Time,TemperatureF,DewpointF,PressureIn,WindDirection,WindDirectionDegrees,WindSpeedMPH,WindSpeedGustMPH,Humidity,HourlyPrecipIn,Conditions,Clouds,dailyrainin,SoftwareType,DateUTC
2013-10-23 00:05:00,52.8,47.8,29.87,SSE,166,0.0,15.0,83,0.00,,,0.00,Wunderground v.1.15,2013-10-23 04:05:00,
2013-10-23 00:10:00,52.8,47.8,29.87,SSE,166,0.0,15.0,83,0.00,,,0.00,Wunderground v.1.15,2013-10-23 04:10:00,
2013-10-23 00:20:00,52.3,47.9,29.88,SSE,166,0.0,15.0,85,0.00,,,0.00,Wunderground v.1.15,2013-10-23 04:20:00,
2013-10-23 00:25:00,52.3,47.9,29.88,SSE,166,0.0,15.0,85,0.00,,,0.00,Wunderground v.1.15,2013-10-23 04:25:00,
2013-10-23 00:30:00,52.3,47.9,29.88,SSE,166,0.0,15.0,85,0.00,,,0.00,Wunderground v.1.15,2013-10-23 04:30:00,
2013-10-23 00:35:00,52.3,48.2,29.87,SSE,166,0.0,15.0,86,0.00,,,0.00,Wunderground v.1.15,2013-10-23 04:35:00,
2013-10-23 00:45:00,52.3,48.2,29.86,SSE,166,0.0,15.0,86,0.00,,,0.00,Wunderground v.1.15,2013-10-23 04:45:00,
2013-10-23 00:55:00,51.6,47.9,29.86,SSE,166,0.0,15.0,87,0.00,,,0.00,Wunderground v.1.15,2013-10-23 04:55:00,
2013-10-23 01:05:00,52.0,48.3,29.86,SSE,166,1.0,15.0,87,0.00,,,0.00,Wunderground v.1.15,2013-10-23 05:05:00,
2013-10-23 01:10:00,52.3,48.2,29.86,SSE,166,1.0,15.0,86,0.00,,,0.00,Wunderground v.1.15,2013-10-23 05:10:00,
2013-10-23 01:20:00,52.1,48.3,29.86,SSE,166,1.0,15.0,87,0.00,,,0.00,Wunderground v.1.15,2013-10-23 05:20:00,
2013-10-23 01:30:00,52.0,48.3,29.85,SSE,166,0.0,15.0,87,0.00,,,0.00,Wunderground v.1.15,2013-10-23 05:30:00,
2013-10-23 01:40:00,51.7,48.6,29.85,SSE,166,0.0,15.0,89,0.00,,,0.00,Wunderground v.1.15,2013-10-23 05:40:00,
2013-10-23 01:50:00,51.4,48.6,29.84,SSE,166,0.0,15.0,90,0.00,,,0.00,Wunderground v.1.15,2013-10-23 05:50:00,
2013-10-23 02:00:00,51.7,49.2,29.84,SSE,166,0.0,15.0,91,0.00,,,0.00,Wunderground v.1.15,2013-10-23 06:00:00,
2013-10-23 02:10:00,51.9,48.8,29.84,SSE,166,1.0,15.0,89,0.00,,,0.00,Wunderground v.1.15,2013-10-23 06:10:00,
2013-10-23 02:20:00,51.4,48.6,29.84,SSE,166,0.0,15.0,90,0.00,,,0.00,Wunderground v.1.15,2013-10-23 06:20:00,
2013-10-23 02:30:00,50.6,48.4,29.83,SSE,166,0.0,15.0,92,0.00,,,0.00,Wunderground v.1.15,2013-10-23 06:30:00,
2013-10-23 02:35:00,50.3,48.1,29.83,SSE,166,0.0,15.0,92,0.00,,,0.00,Wunderground v.1.15,2013-10-23 06:35:00,
2013-10-23 02:45:00,49.4,47.5,29.83,SSE,166,0.0,15.0,93,0.00,,,0.00,Wunderground v.1.15,2013-10-23 06:45:00,
2013-10-23 02:55:00,50.0,48.3,29.83,SSE,166,0.0,15.0,94,0.00,,,0.00,Wunderground v.1.15,2013-10-23 06:55:00,
2013-10-23 03:05:00,50.1,48.2,29.83,SSE,166,0.0,15.0,93,0.00,,,0.00,Wunderground v.1.15,2013-10-23 07:05:00,
2013-10-23 03:15:00,50.1,47.9,29.83,SSE,166,0.0,15.0,92,0.00,,,0.00,Wunderground v.1.15,2013-10-23 07:15:00,
2013-10-23 03:25:00,49.2,47.3,29.82,SSE,166,0.0,15.0,93,0.00,,,0.00,Wunderground v.1.15,2013-10-23 07:25:00,
2013-10-23 03:35:00,48.8,47.2,29.82,SSE,166,0.0,15.0,94,0.00,,,0.00,Wunderground v.1.15,2013-10-23 07:35:00,
2013-10-23 03:40:00,49.2,47.8,29.83,SSE,166,0.0,15.0,95,0.00,,,0.00,Wunderground v.1.15,2013-10-23 07:40:00,
2013-10-23 03:50:00,49.6,47.7,29.82,SSE,166,1.0,1.0,93,0.00,,,0.00,Wunderground v.1.15,2013-10-23 07:50:00,
2013-10-23 04:00:00,49.3,47.4,29.81,SSE,166,0.0,15.0,93,0.00,,,0.00,Wunderground v.1.15,2013-10-23 08:00:00,
2013-10-23 04:05:00,49.2,47.5,29.81,SSE,166,0.0,15.0,94,0.00,,,0.00,Wunderground v.1.15,2013-10-23 08:05:00,
2013-10-23 04:15:00,49.5,47.3,29.81,SSE,166,0.0,15.0,92,0.00,,,0.00,Wunderground v.1.15,2013-10-23 08:15:00,
2013-10-23 04:25:00,48.7,46.8,29.80,SSE,166,1.0,15.0,93,0.00,,,0.00,Wunderground v.1.15,2013-10-23 08:25:00,
2013-10-23 04:35:00,48.3,46.7,29.80,SSE,166,0.0,15.0,94,0.00,,,0.00,Wunderground v.1.15,2013-10-23 08:35:00,
2013-10-23 04:45:00,47.8,46.2,29.80,SSE,166,0.0,15.0,94,0.00,,,0.00,Wunderground v.1.15,2013-10-23 08:45:00,
2013-10-23 04:55:00,47.3,45.9,29.80,SSE,166,0.0,15.0,95,0.00,,,0.00,Wunderground v.1.15,2013-10-23 08:55:00,
2013-10-23 05:05:00,46.9,45.8,29.80,SSE,166,0.0,15.0,96,0.00,,,0.00,Wunderground v.1.15,2013-10-23 09:05:00,
2013-10-23 05:15:00,46.4,45.3,29.80,SSE,166,0.0,15.0,96,0.00,,,0.00,Wunderground v.1.15,2013-10-23 09:15:00,
2013-10-23 05:25:00,46.2,45.1,29.80,SSE,166,0.0,15.0,96,0.00,,,0.00,Wunderground v.1.15,2013-10-23 09:25:00,
2013-10-23 05:30:00,46.3,45.2,29.80,SSE,166,0.0,15.0,96,0.00,,,0.00,Wunderground v.1.15,2013-10-23 09:30:00,
2013-10-23 05:40:00,46.4,45.0,29.80,SSE,166,0.0,15.0,95,0.00,,,0.00,Wunderground v.1.15,2013-10-23 09:40:00,
2013-10-23 05:45:00,46.1,44.7,29.81,SSE,166,0.0,15.0,95,0.00,,,0.00,Wunderground v.1.15,2013-10-23 09:45:00,
2013-10-23 05:50:00,45.8,44.4,29.81,SSE,166,0.0,15.0,95,0.00,,,0.00,Wunderground v.1.15,2013-10-23 09:50:00,
2013-10-23 06:00:00,45.9,45.1,29.81,SSE,166,0.0,15.0,97,0.00,,,0.00,Wunderground v.1.15,2013-10-23 10:00:00,
2013-10-23 06:10:00,46.0,44.9,29.80,SSE,166,0.0,15.0,96,0.00,,,0.00,Wunderground v.1.15,2013-10-23 10:10:00,
2013-10-23 06:20:00,45.9,44.5,29.80,SSE,166,0.0,15.0,95,0.00,,,0.00,Wunderground v.1.15,2013-10-23 10:20:00,
2013-10-23 06:30:00,45.8,44.4,29.80,SSE,166,0.0,15.0,95,0.00,,,0.00,Wunderground v.1.15,2013-10-23 10:30:00,
2013-10-23 06:35:00,45.6,44.3,29.80,SSE,166,0.0,15.0,95,0.00,,,0.00,Wunderground v.1.15,2013-10-23 10:35:00,
2013-10-23 06:45:00,45.6,44.0,29.79,SSE,166,0.0,15.0,94,0.00,,,0.00,Wunderground v.1.15,2013-10-23 10:45:00,
2013-10-23 06:55:00,44.8,43.5,29.79,SSE,166,0.0,15.0,95,0.00,,,0.00,Wunderground v.1.15,2013-10-23 10:55:00,
2013-10-23 07:05:00,44.2,43.1,29.80,SSE,166,0.0,15.0,96,0.00,,,0.00,Wunderground v.1.15,2013-10-23 11:05:00,
2013-10-23 07:15:00,44.1,43.0,29.80,SSE,166,0.0,15.0,96,0.00,,,0.00,Wunderground v.1.15,2013-10-23 11:15:00,
2013-10-23 07:25:00,44.3,43.5,29.80,SSE,166,0.0,15.0,97,0.00,,,0.00,Wunderground v.1.15,2013-10-23 11:25:00,
2013-10-23 07:35:00,45.0,43.9,29.81,SSE,166,1.0,15.0,96,0.00,,,0.00,Wunderground v.1.15,2013-10-23 11:35:00,
2013-10-23 07:45:00,45.2,44.1,29.81,SSE,166,0.0,15.0,96,0.00,,,0.00,Wunderground v.1.15,2013-10-23 11:45:00,
2013-10-23 07:55:00,45.2,44.1,29.81,SSE,166,0.0,15.0,96,0.00,,,0.00,Wunderground v.1.15,2013-10-23 11:55:00,
2013-10-23 08:00:00,45.2,44.1,29.80,SSE,166,0.0,15.0,96,0.00,,,0.00,Wunderground v.1.15,2013-10-23 12:00:00,
2013-10-23 08:10:00,45.8,45.0,29.80,SSE,166,0.0,15.0,97,0.00,,,0.00,Wunderground v.1.15,2013-10-23 12:10:00,
2013-10-23 08:20:00,45.9,44.3,29.81,SSE,166,0.0,15.0,94,0.00,,,0.00,Wunderground v.1.15,2013-10-23 12:20:00,
2013-10-23 08:30:00,46.1,44.7,29.81,SSE,166,0.0,15.0,95,0.00,,,0.00,Wunderground v.1.15,2013-10-23 12:30:00,
2013-10-23 08:40:00,46.1,44.7,29.81,SSE,166,0.0,15.0,95,0.00,,,0.00,Wunderground v.1.15,2013-10-23 12:40:00,
2013-10-23 08:50:00,46.5,45.1,29.81,SSE,166,0.0,15.0,95,0.00,,,0.00,Wunderground v.1.15,2013-10-23 12:50:00,
2013-10-23 09:00:00,46.7,45.3,29.81,SSE,166,0.0,15.0,95,0.00,,,0.00,Wunderground v.1.15,2013-10-23 13:00:00,
2013-10-23 09:10:00,47.2,45.8,29.80,SSE,166,0.0,15.0,95,0.00,,,0.00,Wunderground v.1.15,2013-10-23 13:10:00,
2013-10-23 09:20:00,47.9,46.5,29.80,SSE,166,0.0,15.0,95,0.00,,,0.00,Wunderground v.1.15,2013-10-23 13:20:00,
2013-10-23 09:25:00,48.2,46.6,29.80,SSE,166,0.0,15.0,94,0.00,,,0.00,Wunderground v.1.15,2013-10-23 13:25:00,
2013-10-23 09:35:00,48.3,46.4,29.82,SSE,166,1.0,15.0,93,0.00,,,0.00,Wunderground v.1.15,2013-10-23 13:35:00,
2013-10-23 09:45:00,48.8,46.9,29.81,SSE,166,1.0,15.0,93,0.00,,,0.00,Wunderground v.1.15,2013-10-23 13:45:00,
2013-10-23 09:55:00,49.5,46.7,29.80,SSE,166,0.0,15.0,90,0.00,,,0.00,Wunderground v.1.15,2013-10-23 13:55:00,
2013-10-23 10:05:00,49.6,46.2,29.80,SSE,166,0.0,15.0,88,0.00,,,0.00,Wunderground v.1.15,2013-10-23 14:05:00,
2013-10-23 10:15:00,51.6,47.5,29.80,SSE,166,0.0,15.0,86,0.00,,,0.00,Wunderground v.1.15,2013-10-23 14:15:00,
2013-10-23 10:25:00,53.6,47.6,29.80,SSE,166,0.0,15.0,80,0.00,,,0.00,Wunderground v.1.15,2013-10-23 14:25:00,
2013-10-23 10:35:00,53.4,47.0,29.79,SSE,166,1.0,15.0,79,0.00,,,0.00,Wunderground v.1.15,2013-10-23 14:35:00,
2013-10-23 10:45:00,53.4,45.3,29.80,SSE,166,2.0,15.0,74,0.00,,,0.00,Wunderground v.1.15,2013-10-23 14:45:00,
2013-10-23 10:50:00,53.7,44.9,29.79,SSE,166,2.0,2.0,72,0.00,,,0.00,Wunderground v.1.15,2013-10-23 14:50:00,
2013-10-23 11:00:00,55.1,44.3,29.79,SSE,166,2.0,2.0,67,0.00,,,0.00,Wunderground v.1.15,2013-10-23 15:00:00,
2013-10-23 11:10:00,54.5,43.4,29.79,SSE,166,3.0,15.0,66,0.00,,,0.00,Wunderground v.1.15,2013-10-23 15:10:00,
2013-10-23 11:20:00,54.4,42.1,29.79,SSE,166,2.0,15.0,63,0.00,,,0.00,Wunderground v.1.15,2013-10-23 15:20:00,
2013-10-23 11:30:00,54.0,40.4,29.80,SSE,164,8.0,15.0,60,0.00,,,0.00,Wunderground v.1.15,2013-10-23 15:30:00,
2013-10-23 11:40:00,52.6,40.8,29.80,SSE,166,7.0,7.0,64,0.00,,,0.00,Wunderground v.1.15,2013-10-23 15:40:00,
2013-10-23 11:50:00,53.2,40.9,29.80,SSE,166,5.0,5.0,63,0.00,,,0.00,Wunderground v.1.15,2013-10-23 15:50:00,
2013-10-23 11:55:00,53.8,40.2,29.80,SSE,165,5.0,15.0,60,0.00,,,0.00,Wunderground v.1.15,2013-10-23 15:55:00,
2013-10-23 12:05:00,53.7,41.0,29.79,SSE,165,4.0,15.0,62,0.00,,,0.00,Wunderground v.1.15,2013-10-23 16:05:00,
2013-10-23 12:15:00,54.3,41.1,29.79,SSE,165,3.0,15.0,61,0.00,,,0.00,Wunderground v.1.15,2013-10-23 16:15:00,
2013-10-23 12:25:00,54.2,41.5,29.79,SSE,167,5.0,8.0,62,0.00,,,0.00,Wunderground v.1.15,2013-10-23 16:25:00,
2013-10-23 12:35:00,53.7,38.4,29.79,SSE,165,8.0,9.0,56,0.00,,,0.00,Wunderground v.1.15,2013-10-23 16:35:00,
2013-10-23 12:45:00,54.8,39.4,29.79,SSE,165,8.0,16.0,56,0.00,,,0.00,Wunderground v.1.15,2013-10-23 16:45:00,
2013-10-23 12:55:00,55.5,40.5,29.79,SSE,166,6.0,15.0,57,0.00,,,0.00,Wunderground v.1.15,2013-10-23 16:55:00,
2013-10-23 13:05:00,54.5,40.9,29.80,SSE,165,7.0,15.0,60,0.00,,,0.00,Wunderground v.1.15,2013-10-23 17:05:00,
2013-10-23 13:15:00,54.9,39.9,29.79,SSE,162,9.0,15.0,57,0.00,,,0.00,Wunderground v.1.15,2013-10-23 17:15:00,
2013-10-23 13:20:00,55.5,40.0,29.79,SSE,163,7.0,7.0,56,0.00,,,0.00,Wunderground v.1.15,2013-10-23 17:20:00,
2013-10-23 13:30:00,56.4,39.0,29.78,SSE,164,6.0,6.0,52,0.00,,,0.00,Wunderground v.1.15,2013-10-23 17:30:00,
2013-10-23 13:40:00,56.9,36.9,29.77,SSE,162,8.0,15.0,47,0.00,,,0.00,Wunderground v.1.15,2013-10-23 17:40:00,
2013-10-23 13:50:00,57.6,37.5,29.77,SSE,162,7.0,15.0,47,0.00,,,0.00,Wunderground v.1.15,2013-10-23 17:50:00,
2013-10-23 14:00:00,57.4,36.2,29.77,SSE,163,9.0,10.0,45,0.00,,,0.00,Wunderground v.1.15,2013-10-23 18:00:00,
2013-10-23 14:10:00,58.0,36.8,29.77,SSE,160,9.0,9.0,45,0.00,,,0.00,Wunderground v.1.15,2013-10-23 18:10:00,
2013-10-23 14:20:00,57.8,36.0,29.77,SSE,164,11.0,18.0,44,0.00,,,0.00,Wunderground v.1.15,2013-10-23 18:20:00,
2013-10-23 14:30:00,58.3,37.0,29.78,SSE,168,10.0,10.0,45,0.00,,,0.00,Wunderground v.1.15,2013-10-23 18:30:00,
2013-10-23 14:40:00,57.2,37.1,29.78,SSE,162,9.0,9.0,47,0.00,,,0.00,Wunderground v.1.15,2013-10-23 18:40:00,
2013-10-23 14:45:00,56.8,38.3,29.79,SSE,162,9.0,23.0,50,0.00,,,0.00,Wunderground v.1.15,2013-10-23 18:45:00,
2013-10-23 14:55:00,56.4,39.5,29.80,SSE,166,8.0,15.0,53,0.00,,,0.00,Wunderground v.1.15,2013-10-23 18:55:00,
2013-10-23 15:05:00,56.1,39.7,29.80,SSE,162,10.0,23.0,54,0.00,,,0.00,Wunderground v.1.15,2013-10-23 19:05:00,
2013-10-23 15:15:00,54.6,40.6,29.81,SSE,162,9.0,23.0,59,0.00,,,0.00,Wunderground v.1.15,2013-10-23 19:15:00,
2013-10-23 15:25:00,54.6,39.7,29.81,SSE,160,10.0,13.0,57,0.00,,,0.00,Wunderground v.1.15,2013-10-23 19:25:00,
2013-10-23 15:30:00,54.9,40.4,29.82,SSE,162,10.0,23.0,58,0.00,,,0.00,Wunderground v.1.15,2013-10-23 19:30:00,
2013-10-23 15:40:00,53.4,40.7,29.83,SSE,167,10.0,23.0,62,0.00,,,0.00,Wunderground v.1.15,2013-10-23 19:40:00,
2013-10-23 15:50:00,51.8,40.0,29.83,South,169,7.0,7.0,64,0.00,,,0.00,Wunderground v.1.15,2013-10-23 19:50:00,
2013-10-23 16:00:00,52.0,39.8,29.83,South,169,5.0,23.0,63,0.00,,,0.00,Wunderground v.1.15,2013-10-23 20:00:00,
2013-10-23 16:10:00,52.4,39.8,29.84,SSE,164,8.0,23.0,62,0.00,,,0.00,Wunderground v.1.15,2013-10-23 20:10:00,
2013-10-23 16:15:00,53.1,39.6,29.84,SSE,164,8.0,23.0,60,0.00,,,0.00,Wunderground v.1.15,2013-10-23 20:15:00,
2013-10-23 16:25:00,52.8,38.0,29.84,South,169,7.0,23.0,57,0.00,,,0.00,Wunderground v.1.15,2013-10-23 20:25:00,
2013-10-23 16:35:00,52.2,37.4,29.85,South,171,8.0,8.0,57,0.00,,,0.00,Wunderground v.1.15,2013-10-23 20:35:00,
2013-10-23 16:45:00,52.6,37.3,29.85,South,169,7.0,23.0,56,0.00,,,0.00,Wunderground v.1.15,2013-10-23 20:45:00,
2013-10-23 16:55:00,52.9,36.7,29.86,South,169,6.0,9.0,54,0.00,,,0.00,Wunderground v.1.15,2013-10-23 20:55:00,
2013-10-23 17:05:00,52.8,36.1,29.86,South,169,7.0,23.0,53,0.00,,,0.00,Wunderground v.1.15,2013-10-23 21:05:00,
2013-10-23 17:15:00,52.2,36.0,29.86,South,170,6.0,23.0,54,0.00,,,0.00,Wunderground v.1.15,2013-10-23 21:15:00,
2013-10-23 17:25:00,51.7,35.6,29.87,South,169,8.0,23.0,54,0.00,,,0.00,Wunderground v.1.15,2013-10-23 21:25:00,
2013-10-23 17:35:00,51.3,35.7,29.89,SSE,166,8.0,23.0,55,0.00,,,0.00,Wunderground v.1.15,2013-10-23 21:35:00,
2013-10-23 17:40:00,51.2,36.0,29.89,South,171,9.0,23.0,56,0.00,,,0.00,Wunderground v.1.15,2013-10-23 21:40:00,
2013-10-23 17:50:00,47.4,39.2,29.91,South,169,9.0,9.0,73,0.00,,,0.00,Wunderground v.1.15,2013-10-23 21:50:00,
2013-10-23 18:00:00,46.6,38.4,29.92,South,169,6.0,6.0,73,0.00,,,0.00,Wunderground v.1.15,2013-10-23 22:00:00,
2013-10-23 18:10:00,46.6,37.7,29.93,South,169,6.0,6.0,71,0.00,,,0.00,Wunderground v.1.15,2013-10-23 22:10:00,
2013-10-23 18:20:00,46.5,36.9,29.93,South,169,7.0,7.0,69,0.00,,,0.00,Wunderground v.1.15,2013-10-23 22:20:00,
2013-10-23 18:30:00,46.3,36.3,29.94,South,169,4.0,4.0,68,0.00,,,0.00,Wunderground v.1.15,2013-10-23 22:30:00,
2013-10-23 18:40:00,46.0,36.0,29.94,South,169,4.0,23.0,68,0.00,,,0.00,Wunderground v.1.15,2013-10-23 22:40:00,
2013-10-23 18:50:00,46.1,34.6,29.95,South,169,4.0,23.0,64,0.00,,,0.00,Wunderground v.1.15,2013-10-23 22:50:00,
2013-10-23 19:00:00,46.5,34.2,29.96,South,169,4.0,23.0,62,0.00,,,0.00,Wunderground v.1.15,2013-10-23 23:00:00,
2013-10-23 19:05:00,46.4,33.7,29.96,SSE,165,6.0,23.0,61,0.00,,,0.00,Wunderground v.1.15,2013-10-23 23:05:00,
2013-10-23 19:15:00,46.3,33.6,29.97,South,169,7.0,10.0,61,0.00,,,0.00,Wunderground v.1.15,2013-10-23 23:15:00,
2013-10-23 19:25:00,46.2,33.5,29.98,South,169,6.0,23.0,61,0.00,,,0.00,Wunderground v.1.15,2013-10-23 23:25:00,
2013-10-23 19:35:00,46.1,33.0,29.99,South,169,6.0,23.0,60,0.00,,,0.00,Wunderground v.1.15,2013-10-23 23:35:00,
2013-10-23 19:45:00,46.1,33.4,29.99,South,169,4.0,23.0,61,0.00,,,0.00,Wunderground v.1.15,2013-10-23 23:45:00,
2013-10-23 19:55:00,46.0,33.3,30.00,South,169,6.0,23.0,61,0.00,,,0.00,Wunderground v.1.15,2013-10-23 23:55:00,
2013-10-23 20:05:00,45.9,33.2,30.01,South,169,7.0,23.0,61,0.00,,,0.00,Wunderground v.1.15,2013-10-24 00:05:00,
2013-10-23 20:10:00,45.9,33.2,30.00,South,169,7.0,7.0,61,0.00,,,0.00,Wunderground v.1.15,2013-10-24 00:10:00,
2013-10-23 20:20:00,45.6,32.9,30.01,South,169,5.0,5.0,61,0.00,,,0.00,Wunderground v.1.15,2013-10-24 00:20:00,
2013-10-23 20:30:00,45.4,32.7,30.02,South,169,6.0,23.0,61,0.00,,,0.00,Wunderground v.1.15,2013-10-24 00:30:00,
2013-10-23 20:40:00,45.4,32.3,30.02,South,169,7.0,23.0,60,0.00,,,0.00,Wunderground v.1.15,2013-10-24 00:40:00,
2013-10-23 20:50:00,45.4,32.7,30.03,SSE,168,6.0,6.0,61,0.00,,,0.00,Wunderground v.1.15,2013-10-24 00:50:00,
2013-10-23 21:00:00,45.0,31.9,30.03,SSE,168,5.0,5.0,60,0.00,,,0.00,Wunderground v.1.15,2013-10-24 01:00:00,
2013-10-23 21:10:00,45.0,31.5,30.04,SSE,168,4.0,23.0,59,0.00,,,0.00,Wunderground v.1.15,2013-10-24 01:10:00,
2013-10-23 21:20:00,44.8,31.3,30.04,South,169,4.0,4.0,59,0.00,,,0.00,Wunderground v.1.15,2013-10-24 01:20:00,
2013-10-23 21:30:00,44.5,31.1,30.04,SSE,168,4.0,23.0,59,0.00,,,0.00,Wunderground v.1.15,2013-10-24 01:30:00,
2013-10-23 21:35:00,44.2,30.8,30.05,South,169,6.0,23.0,59,0.00,,,0.00,Wunderground v.1.15,2013-10-24 01:35:00,
2013-10-23 21:45:00,44.1,30.7,30.05,South,169,5.0,23.0,59,0.00,,,0.00,Wunderground v.1.15,2013-10-24 01:45:00,
2013-10-23 21:55:00,43.9,30.5,30.05,South,169,4.0,23.0,59,0.00,,,0.00,Wunderground v.1.15,2013-10-24 01:55:00,
2013-10-23 22:05:00,43.5,30.5,30.05,South,169,5.0,23.0,60,0.00,,,0.00,Wunderground v.1.15,2013-10-24 02:05:00,
2013-10-23 22:15:00,43.2,30.6,30.06,South,169,3.0,23.0,61,0.00,,,0.00,Wunderground v.1.15,2013-10-24 02:15:00,
2013-10-23 22:25:00,43.2,29.8,30.06,South,169,4.0,23.0,59,0.00,,,0.00,Wunderground v.1.15,2013-10-24 02:25:00,
2013-10-23 22:35:00,43.5,29.7,30.06,South,170,5.0,23.0,58,0.00,,,0.00,Wunderground v.1.15,2013-10-24 02:35:00,
2013-10-23 22:45:00,43.1,29.7,30.06,South,170,4.0,23.0,59,0.00,,,0.00,Wunderground v.1.15,2013-10-24 02:45:00,
2013-10-23 22:55:00,43.2,29.8,30.06,South,170,2.0,23.0,59,0.00,,,0.00,Wunderground v.1.15,2013-10-24 02:55:00,
2013-10-23 23:00:00,43.3,29.9,30.07,South,170,3.0,23.0,59,0.00,,,0.00,Wunderground v.1.15,2013-10-24 03:00:00,
2013-10-23 23:10:00,43.6,30.2,30.07,South,170,3.0,23.0,59,0.00,,,0.00,Wunderground v.1.15,2013-10-24 03:10:00,
2013-10-23 23:20:00,43.4,30.4,30.07,South,170,3.0,3.0,60,0.00,,,0.00,Wunderground v.1.15,2013-10-24 03:20:00,
2013-10-23 23:30:00,43.5,29.7,30.07,South,169,5.0,23.0,58,0.00,,,0.00,Wunderground v.1.15,2013-10-24 03:30:00,
2013-10-23 23:40:00,43.4,29.6,30.07,South,169,3.0,3.0,58,0.00,,,0.00,Wunderground v.1.15,2013-10-24 03:40:00,
2013-10-23 23:50:00,43.3,29.9,30.07,South,169,3.0,3.0,59,0.00,,,0.00,Wunderground v.1.15,2013-10-24 03:50:00,